Regional Weather Roundup
Issued by NWS Grand Forks, ND

Home | Current Version | Previous Version | Text Only | Print | Product List | Glossary On
Versions: 1 2 3 4 5 6 7 8 9 10 11 12 13 14 15 16 17 18 19 20 21 22 23 24 25 26 27 28 29 30 31 32 33 34 35 36 37 38 39 40 41 42 43 44 45 46 47 48 49 50
000
ASUS43 KFGF 040731
RWRFGF
PRAIRIE TO PINES  WEATHER ROUNDUP
NATIONAL WEATHER SERVICE EASTERN NORTH DAKOTA/GRAND FORKS ND
200 AM CDT SAT JUL 04 2015

 **SATELLITE DATA USED TO AUGMENT SKY COVER AT AUTOMATED STATIONS**
 *****  WEATHER ACROSS EASTERN NORTH DAKOTA  *****

CITY           SKY/WX    TMP DP  RH WIND       PRES   REMARKS
GRAND FORKS    MOCLDY    61  57  88 S3        29.89S FOG
GRAND FRKS AFB CLEAR     60  59  97 S2        29.89F FOG
GRAND FRKS NWS   N/A     63 N/A N/A E3          N/A
DEVILS LAKE    CLEAR     66  59  77 SE8       29.88F
FARGO          CLEAR     64  60  87 SE5       29.90S FOG
WAHPETON ARPT  NOT AVBL
$$

 ***** WEATHER ACROSS CENTRAL AND WESTERN NORTH DAKOTA  *****

CITY           SKY/WX    TMP DP  RH WIND       PRES   REMARKS
BISMARCK       CLOUDY    66  63  90 CALM      29.89F FOG
MINOT          CLEAR     64  61  90 CALM      29.84F FOG
JAMESTOWN      CLOUDY    67  63  87 S6        29.91S FOG
MINOT AFB      CLEAR     64  64 100 S5        29.83F FOG
GARRISON         N/A     68  63  84 SE6       29.87F
WILLISTON      CLEAR     73  63  70 S8        29.82F
DICKINSON      CLEAR     66  62  87 S9        29.86F FOG
HETTINGER      CLEAR     64  60  87 SE6       29.92F FOG
$$

 *****  OTHER AIRPORT OBSERVATIONS IN OUR AREA  *****

CITY           SKY/WX    TMP DP  RH WIND       PRES   REMARKS
WALHALLA       FAIR      64  63  94 MISG      29.87F FOG
GRAFTON AIRPOR FAIR      59  59 100 S6        29.89F FOG
VALLEY CITY AR FAIR      63  63 100 S6        29.92S FOG
CANDO          FAIR      63  59  88 S8        29.88F FOG
CAVALIER APRT  FAIR      61  59  94 S5        29.88S FOG
GWINNER          N/A     66  66 100 S3        29.92
SHEYENNE NWR     N/A     63  62  98 CALM      29.95S
ROLLA          PTSUNNY   64  63  94 S13       29.88F
 ***** THE ABOVE OBSERVATIONS ARE NON NWS ARE NOT QUALITY
       CONTROLLED AND MAY MIS-REPORT RAIN FOR SNOW...
$$

  *****  WEATHER ACROSS NORTHERN MINNESOTA  *****

CITY           SKY/WX    TMP DP  RH WIND       PRES   REMARKS
FLAG ISLAND    CLEAR     68  57  68 CALM      29.89F
WARROAD        CLEAR     61  57  88 S3        29.92S
ROSEAU         CLEAR     61  55  82 S3        29.91S
HALLOCK        CLEAR     61  57  88 SE7       29.88F FOG
THF RVR FALLS    N/A     61  59  94 CALM      29.92S VSB 3/4
BAUDETTE       CLEAR     59  56  89 E5        29.92R
WASKISH        CLEAR     55  54  94 CALM      29.94S FOG
CROOKSTON      CLEAR     61  59  94 SE6       29.91F FOG
$$
  *****  WEATHER ACROSS CENTRAL AND WEST MINNESOTA  *****

CITY           SKY/WX    TMP DP  RH WIND       PRES   REMARKS
FOSSTON          N/A     55  48  76 CALM      29.94S HAZE
BEMIDJI        CLEAR     55  53  94 CALM      29.94R
PARK RAPIDS    FOG       58  56  93 CALM      29.94S VSB 1/2
ELBOW LAKE     FAIR      68  63  83 E5        29.93R HAZE
WADENA           N/A     57  57 100 CALM      29.94S FOG
DETROIT LAKES  CLEAR     63  61  94 CALM      29.95S FOG
MOORHEAD       CLEAR     63  61  94 CALM      29.92R FOG
FERGUS FALLS   CLEAR     68  64  88 E3        29.92S FOG
MORRIS MN        N/A     63  63 100 CALM      29.92S FOG
STAPLES        PTCLDY    59  57  94 CALM      29.94S FOG
$$
  *****  WEATHER ELSEWHERE ACROSS MINNESOTA  *****

CITY           SKY/WX    TMP DP  RH WIND       PRES   REMARKS
DULUTH         CLEAR     61  54  77 NE3       29.93S
INTRNTL FALLS  CLEAR     51  50  96 CALM      29.94R
ELY            CLEAR     50  48  93 CALM      29.95S
CLOQUET        CLEAR     55  54  94 CALM      29.93S
WHEATON        CLEAR     57  55  94 SE3       29.93S FOG
BRAINERD       FOG       57  56  96 CALM      29.94R VSB 3/4
HIBBING        CLEAR     52  51  97 CALM      29.94F
ALEXANDRIA     CLOUDY    62  62 100 E3        29.96R FOG
SAINT CLOUD    FOG       60  60 100 CALM      29.92S VSB 1/2
MINNEAPOLIS    MOCLDY    70  60  70 VRB3      29.92S
$$

  *****  WEATHER ACROSS SOUTH DAKOTA  *****

CITY           SKY/WX    TMP DP  RH WIND       PRES   REMARKS
SIOUX FALLS    CLEAR     68  61  78 SW5       29.97S
BROOKINGS      CLEAR     64  61  88 CALM      29.99R
WATERTOWN      PTCLDY    64  63  96 S3        29.95S FOG
HURON          CLEAR     68  64  87 S7        29.93S
SISSETON         N/A     64  61  90 CALM      29.91F
ABERDEEN       CLOUDY    66  62  87 S7        29.92S FOG
MITCHELL       CLEAR     69  64  84 S7        29.95F
PIERRE         CLEAR     67  63  87 S8        29.91F
MOBRIDGE       CLEAR     70  68  93 S8        29.89S FOG
RAPID CITY     PTCLDY    63  59  87 S5        29.94F
$$

  *****  SOME WEATHER IN NEARBY STATES *****

CITY           SKY/WX    TMP DP  RH WIND       PRES   REMARKS
GLASGOW MT     CLEAR     67  57  70 E14       29.76F
GREAT FALLS MT PTCLDY    68  49  50 SW10      29.84R
CHEYENNE WY    CLEAR     63  54  72 S9        30.11F
SCOTTSBLUFF NE CLOUDY    68  57  68 E7        30.00F
OMAHA NE       CLEAR     63  57  81 CALM      29.99R
DES MOINES IA  PTCLDY    64  57  78 CALM      29.98S
DAVENPORT IA   CLEAR     57  55  93 CALM      29.98S
CHICAGO IL     PTCLDY    62  54  74 CALM      29.95F
EAU CLAIRE WI  CLEAR     64  56  75 SW7       29.91S
LA CROSSE WI   CLEAR     64  61  90 S6        29.93S
$$

  *****  SOME NATIONAL WEATHER *****

CITY           SKY/WX    TMP DP  RH WIND       PRES   REMARKS
LA GUARDIA NY  CLOUDY    72  57  59 S7        29.96F
RALEIGH NC     MOCLDY    70  69  97 SW3       29.91F
ATLANTA GA     TSTM      70  66  88 SW14G23   30.05
NEW ORLEANS LA PTCLDY    79  73  82 S5        30.03F
OKLAHOMA CITY  MOCLDY    77  68  73 VRB3      29.96R
ALBUQUERQUE NM CLOUDY    75  53  46 CALM      30.14S
SALT LAKE CITY MOCLDY    83  47  28 SE7       29.91S
LOS ANGELES CA CLOUDY    63  59  88 W7        29.90S
BOISE ID       MOCLDY    82  41  23 SE5       29.82S
SEATTLE WA     CLEAR     72  54  53 W3        29.89S
$$

*** WEATHER ACROSS MANITOBA...SASKATCHEWAN AND ONTARIO ***
                ***ONTARIO***

CITY           SKY/WX    TMP DP  RH WIND       PRES   REMARKS
GERALDTON      CLEAR     52  50  93 NW3       29.91S
THUNDER BAY    CLEAR     54  52  94 W3        29.93R
SIOUX LOOKOUT  PTCLDY    50  50 100 CALM      29.93F
TORONTO        CLEAR     57  46  67 N9        29.92S
BIG TROUT LK   CLEAR     55  48  76 SE7       29.90F
PICKLE LAKE    NOT AVBL
DRYDEN         CLEAR     61  55  82 S8        29.93S
KENORA         PTCLDY    64  57  77 S5        29.92
$$
                *** MANITOBA***

CITY           SKY/WX    TMP DP  RH WIND       PRES   REMARKS
BRANDON        CLEAR     61  57  88 SE6       29.83F SMOKE
DAUPHIN        CLEAR     72  59  64 SW12G17   29.77F HAZE
ISLAND LAKE    CLOUDY    66  50  55 SE12G21   29.79F
PILOT MOUND      N/A     61  57  88 S9          N/A
THE PAS        LGT RAIN  64  61  88 S5        29.67F SMOKE
THOMPSON       CLOUDY    61  59  94 S6        29.63F
WINNIPEG       CLEAR     63  59  88 S6        29.86F
LYNN LAKE      CLOUDY    63  59  88 SW9       29.56S FOG
CHURCHILL      LGT RAIN  43  43 100 SE23G29   29.82F
GILLAM         TSTM      61  54  77 SE9       29.70F
$$
                ***SASKATCHEWAN***

CITY           SKY/WX    TMP DP  RH WIND       PRES   REMARKS
ESTEVAN        CLEAR     64  63  94 S6        29.81F SMOKE
KINDERSLEY     CLOUDY    68  57  68 NW20G26   29.79R THUNDER
LLOYDMINSTER   CLOUDY    63  48  59 SW9       29.81R
PRINCE ALBERT  MOCLDY    63  57  82 VRB2      29.72R
REGINA         LGT RAIN  68  63  83 SE10      29.76F SMOKE
YORKTON        CLOUDY    68  63  83 S8        29.78S HAZE
N. BATTLEFORD  CLOUDY    63  59  88 N3        29.80R
LA RONGE       SMOKE     70  43  37 N12G18    29.70R VSB 1
SASKATOON      CLOUDY    66  59  77 CALM      29.75R
SWIFT CURRENT  CLEAR     70  52  52 N13G18    29.76R
$$
NOTE: THESE ARE AUTOMATED STATIONS WITH LIMITED QUALITY CONTROL
      "FAIR" INDICATES FEW OR NO CLOUDS BELOW 12,000 FEET WITH NO
      SIGNIFICANT WEATHER AND/OR OBSTRUCTIONS TO VISIBILITY.
      SKY/WX - SKY CONDITION AND SIGNIFICANT WEATHER.
      TMP - AIR TEMPERATURE.    DP   - DEWPOINT TEMPERATURE.
      RH  - RELATIVE HUMIDITY.  PRES - PRESSURE.
      HX  - HEAT INDEX.         WCI  - WIND CHILL INDEX.
$


USA.gov is the U.S. government's official web portal to all federal, state and local government web resources and services.